Weather History for McCall, ID

Change the Weather History Date:

Tuesday, February 21, 2012

  Actual Average Record
Temperature  
Mean Temperature 29 °F 23 °F  
Max Temperature 34 °F 35 °F 54 °F (1995)
Min Temperature 24 °F 11 °F -17 °F (1975)
Degree Days  
Heating Degree Days 36 42  
Month to date heating degree days 890 912  
Since 1 July heating degree days 5677 6386  
Cooling Degree Days 0 0  
Month to date cooling degree days 0 0  
Year to date cooling degree days 0 0  
Moisture  
Dew Point 27 °F    
Average Humidity 94    
Maximum Humidity 100    
Minimum Humidity 88    
Precipitation  
Precipitation 0.70 in 0.05 in 1.10 in (1956)
Month to date precipitation 1.26 1.31  
Year to date precipitation 4.57 3.04  
Sea Level Pressure  
Sea Level Pressure 30.06 in    
Wind  
Wind Speed 1 mph (NNW)    
Max Wind Speed 7 mph    
Max Gust Speed 8 mph    
Visibility 2 miles    
Events Fog , Rain , Snow    
T = Trace of Precipitation, MM = Missing Value Source: NWS Daily Summary

Daily Weather History Graph

Daily Weather History Graph

Search for Another Location

Airport:

Trip Planner

Search our weather history database for the weather conditions in past years. The results will help you decide how hot, cold, wet, or windy it might be!

Date:

Astronomy

Feb. 21, 2012 Rise Set
Actual Time 7:36 AM MST 6:20 PM MST
Civil Twilight 7:06 AM MST 6:50 PM MST
Nautical Twilight 6:32 AM MST 7:24 PM MST
Astronomical Twilight 5:58 AM MST 7:58 PM MST
Moon 7:05 AM MST (2/21) 6:34 PM MST (2/21)
Length of Visible Light 11h 43m
Length of Day
10h 44m
Waning Crescent, 0% of the Moon is Illuminated
Feb 21
Waning Crescent
Feb 21
New
Feb 29
First Quarter
Mar 8
Full
Mar 14
Last Quarter

Hourly Weather History & Observations

Time (MST) Temp. Windchill Dew Point Humidity Pressure Visibility Wind Dir Wind Speed Gust Speed Precip Events Conditions
12:51 AM 25.0 °F - 23.0 °F 92% 30.12 in 4.0 mi Calm Calm - 0.01 in Snow Light Snow
1:51 AM 25.0 °F - 23.0 °F 92% 30.12 in 3.0 mi Calm Calm - 0.01 in Snow Light Snow
2:51 AM 24.1 °F - 23.0 °F 96% 30.10 in 6.0 mi Calm Calm - 0.01 in Snow Light Snow
3:49 AM 24.8 °F - 21.2 °F 86% 29.98 in 6.0 mi Calm Calm - 0.00 in Snow Light Snow
3:51 AM 24.1 °F - 21.9 °F 91% 30.09 in 5.0 mi Calm Calm - 0.00 in Snow Light Snow
4:17 AM 24.8 °F - 23.0 °F 93% 29.98 in 3.0 mi Calm Calm - 0.00 in Snow Light Snow
4:23 AM 24.8 °F - 23.0 °F 93% 29.98 in 2.0 mi Calm Calm - 0.01 in Snow Light Snow
4:29 AM 24.8 °F - 23.0 °F 93% 29.98 in 1.5 mi Calm Calm - 0.01 in Snow Light Snow
4:51 AM 24.1 °F - 23.0 °F 96% 30.09 in 1.5 mi Calm Calm - 0.02 in Snow Light Snow
5:06 AM 24.8 °F - 23.0 °F 93% 29.98 in 1.0 mi Calm Calm - 0.01 in Snow Light Snow
5:51 AM 25.0 °F - 23.0 °F 92% 30.10 in 0.8 mi Calm Calm - 0.04 in Snow Light Snow
6:14 AM 24.8 °F - 23.0 °F 93% 29.99 in 1.0 mi Calm Calm - 0.03 in Snow Light Snow
6:27 AM 24.8 °F - 23.0 °F 93% 30.00 in 1.2 mi Calm Calm - 0.04 in Snow Light Snow
6:51 AM 25.0 °F - 24.1 °F 96% 30.12 in 1.2 mi Calm Calm - 0.05 in Snow Light Snow
7:11 AM 24.8 °F - 23.0 °F 93% 30.01 in 1.0 mi Calm Calm - 0.01 in Snow Light Snow
7:18 AM 24.8 °F - 23.0 °F 93% 30.00 in 1.2 mi Calm Calm - 0.02 in Snow Light Snow
7:49 AM 24.8 °F - 24.8 °F 100% 30.01 in 0.8 mi Calm Calm - 0.03 in Snow Light Snow
7:51 AM 25.0 °F - 24.1 °F 96% 30.12 in 0.8 mi Calm Calm - 0.03 in Snow Light Snow
8:08 AM 26.6 °F - 24.8 °F 93% 30.01 in 0.8 mi Calm Calm - 0.02 in Snow Light Snow
8:19 AM 26.6 °F - 24.8 °F 93% 30.02 in 0.8 mi Calm Calm - 0.02 in Snow Light Snow
8:34 AM 26.6 °F - 24.8 °F 93% 30.02 in 0.8 mi Calm Calm - 0.03 in Snow Light Snow
8:40 AM 26.6 °F - 24.8 °F 93% 30.02 in 1.0 mi Calm Calm - 0.03 in Snow Light Snow
9:00 AM 26.6 °F - 24.8 °F 93% 30.02 in 1.2 mi Calm Calm - 0.00 in Snow Light Snow
9:06 AM 26.6 °F - 24.8 °F 93% 30.03 in 1.0 mi Calm Calm - 0.01 in Snow Light Snow
9:12 AM 26.6 °F - 24.8 °F 93% 30.03 in 0.8 mi Calm Calm - 0.01 in Snow Light Snow
9:26 AM 26.6 °F - 24.8 °F 93% 30.02 in 0.5 mi Calm Calm - 0.02 in Fog , Snow Snow
9:41 AM 26.6 °F - 24.8 °F 93% 30.03 in 0.8 mi Calm Calm - 0.03 in Snow Light Snow
9:51 AM 27.0 °F - 26.1 °F 96% 30.14 in 0.8 mi Calm Calm - 0.04 in Snow Light Snow
10:00 AM 28.4 °F - 26.6 °F 93% 30.03 in 0.5 mi Calm Calm - 0.01 in Fog , Snow Snow
10:31 AM 28.4 °F - 26.6 °F 93% 30.03 in 0.5 mi Calm Calm - 0.03 in Fog , Snow Light Snow
10:51 AM 28.9 °F - 27.0 °F 92% 30.14 in 0.8 mi Calm Calm - 0.05 in Snow Light Snow
11:05 AM 28.4 °F - 26.6 °F 93% 30.03 in 0.5 mi Calm Calm - 0.01 in Fog , Snow Snow
11:51 AM 30.0 °F - 28.0 °F 92% 30.14 in 0.5 mi Calm Calm - 0.06 in Fog , Snow Snow
12:26 PM 30.2 °F 26.7 °F 28.4 °F 93% 30.04 in 0.8 mi NW 3.5 mph - 0.03 in Snow Light Snow
12:48 PM 32.0 °F - 28.4 °F 87% 30.03 in 0.8 mi Calm Calm - 0.05 in Snow Light Snow
12:51 PM 30.9 °F - 28.9 °F 92% 30.13 in 0.8 mi Calm Calm - 0.05 in Snow Light Snow
1:51 PM 32.0 °F 27.5 °F 30.0 °F 92% 30.12 in 0.8 mi NW 4.6 mph - 0.05 in Snow Light Snow
1:58 PM 32.0 °F 28.7 °F 30.2 °F 93% 30.03 in 1.0 mi NW 3.5 mph - 0.00 in Snow Light Snow
2:11 PM 33.8 °F - 30.2 °F 87% 30.02 in 1.0 mi Calm Calm - 0.01 in Snow Light Snow
2:51 PM 33.1 °F 30.0 °F 30.9 °F 92% 30.12 in 1.0 mi NNW 3.5 mph - 0.03 in Snow Light Snow
3:01 PM 33.8 °F 30.8 °F 30.2 °F 87% 30.03 in 1.2 mi NNW 3.5 mph - 0.00 in Snow Light Snow
3:08 PM 33.8 °F - 30.2 °F 87% 30.04 in 1.0 mi Calm Calm - 0.01 in Snow Light Snow
3:20 PM 33.8 °F - 30.2 °F 87% 30.03 in 0.8 mi Calm Calm - 0.02 in Snow Light Snow
3:51 PM 33.1 °F - 32.0 °F 96% 30.12 in 0.8 mi Calm Calm - 0.04 in Snow Light Snow
3:57 PM 33.8 °F - 30.2 °F 87% 30.04 in 1.0 mi Calm Calm - 0.01 in Snow Light Snow
4:05 PM 33.8 °F - 30.2 °F 87% 30.04 in 1.2 mi Calm Calm - 0.01 in Snow Light Snow
4:32 PM 33.8 °F - 30.2 °F 87% 30.05 in 1.0 mi Calm Calm - N/A Snow Light Snow
4:35 PM 33.8 °F - 30.2 °F 87% 30.05 in 1.2 mi Calm Calm - 0.02 in Snow Light Snow
4:51 PM 33.1 °F - 30.9 °F 92% 30.13 in 1.0 mi Calm Calm - 0.03 in Snow Light Snow
5:15 PM 32.0 °F - 32.0 °F 100% 30.04 in 1.5 mi Calm Calm - 0.01 in Snow Light Snow
5:51 PM 33.1 °F 30.0 °F 30.9 °F 92% 30.14 in 2.0 mi NNW 3.5 mph - 0.03 in Snow Light Snow
6:00 PM 33.8 °F 30.8 °F 32.0 °F 93% 30.04 in 4.0 mi NNE 3.5 mph - 0.00 in Snow Light Snow
6:33 PM 32.0 °F - 32.0 °F 100% 30.04 in 9.0 mi Calm Calm - 0.00 in   Overcast
7:22 PM 33.8 °F 28.6 °F 32.0 °F 93% 30.04 in 7.0 mi North 5.8 mph - 0.02 in Rain Light Rain
7:44 PM 33.8 °F 30.8 °F 32.0 °F 93% 30.04 in 9.0 mi North 3.5 mph - 0.02 in Rain Light Rain
7:51 PM 33.1 °F - 32.0 °F 96% 30.12 in 9.0 mi Calm Calm - 0.02 in Rain Light Rain
8:51 PM 33.1 °F - 32.0 °F 96% 30.12 in 7.0 mi Calm Calm - 0.01 in Rain Light Rain
9:51 PM 33.1 °F - 32.0 °F 96% 30.11 in 8.0 mi Calm Calm - 0.01 in Rain Light Rain
10:48 PM 33.8 °F 29.6 °F 32.0 °F 93% 30.05 in 10.0 mi North 4.6 mph - 0.05 in Rain Light Rain
10:51 PM 33.1 °F - 32.0 °F 96% 30.12 in 8.0 mi Calm Calm - 0.06 in Rain Light Rain
11:51 PM 34.0 °F - 33.1 °F 96% 30.12 in 8.0 mi Calm Calm - 0.02 in Rain Light Rain